Theta_e
319 319 321 322 325 326 324 326 323 326 326 328 328 326 327 328 328 327 326 324 323 323 323 323 323 324 324 324 325 325 323 323 319 321 326 327 327 328 328 328 326 322 321
319 318 320 323 324 325 325 325 326 324 326 327 328 328 328 326 325 325 325 325 323 320 320 323 322 323 323 324 325 323 322 322 322 319 323 324 323 324 325 320 321 323 318
319 316 320 322 322 323 324 323 326 324 324 326 327 327 328 328 327 327 327 325 323 323 322 322 322 322 322 323 323 322 322 325 322 320 318 320 318 316 317 318 313 311 314
318 315 319 320 320 321 323 325 326 326 325 325 326 328 328 329 329 328 327 325 324 323 323 323 322 323 322 322 323 320 320 320 322 319 316 314 314 313 311 311 315 317 317
317 315 317 319 322 322 322 324 325 327 325 326 325 327 328 329 330 328 328 326 324 323 323 324 324 323 322 322 322 319 320 319 318 315 313 312 311 312 309 311 314 314 315
317 316 318 318 321 322 319 319 322 323 322 322 321 319 320 324 309 315 324 325 325 324 323 323 322 321 319 317 316 316 320 317 313 313 312 312 312 314 314 315 314 311 310
317 318 318 318 321 321 320 319 319 320 318 318 318 317 312 311 308 311 316 328 326 324 323 322 324 325 320 321 309 308 310 311 314 314 313 313 311 315 315 312 311 312 312
315 317 317 317 319 320 319 319 319 319 317 317 317 315 311 307 303 307 312 322 320 321 321 321 321 318 317 315 315 316 316 315 316 323 318 315 315 316 318 318 316 315 315
313 314 317 316 316 317 319 317 319 319 318 316 315 314 311 307 304 308 319 320 319 319 318 316 318 314 305 308 316 314 313 308 302 302 302 299 298 302 308 313 311 308 304
313 314 316 316 316 315 319 319 320 320 320 319 316 313 311 308 300 302 315 320 314 312 308 311 309 308 300 307 314 314 311 309 305 304 303 299 298 299 301 305 307 301 300
314 314 313 316 316 316 320 321 321 321 319 317 318 314 313 309 305 299 302 316 314 311 308 305 305 297 300 302 308 313 310 307 306 309 309 309 310 309 304 307 305 303 301
314 315 313 314 319 323 321 321 321 320 318 317 316 315 316 312 305 297 297 301 301 310 308 305 298 294 295 296 297 295 298 303 305 305 307 309 307 308 309 309 308 308 308
314 313 314 315 316 322 321 320 318 318 318 314 316 313 315 315 308 297 295 300 301 310 306 303 295 294 294 294 294 297 299 303 304 307 308 305 302 302 303 303 303 304 305
314 314 315 313 315 321 322 321 319 316 315 313 313 311 311 313 308 299 298 301 300 298 298 296 295 294 295 295 293 293 298 303 306 309 304 303 302 301 300 300 299 299 300
315 316 314 313 317 318 320 320 318 317 315 314 311 311 309 312 312 302 301 303 305 303 302 300 299 296 299 302 304 301 303 306 310 307 303 301 299 299 299 298 298 296 295
317 317 315 313 316 317 317 315 300 302 303 303 303 309 312 308 301 298 298 299 300 300 308 306 305 305 304 305 306 308 309 308 303 302 300 300 298 297 297 297 296 294 293
318 318 316 313 316 316 316 316 312 301 297 296 298 299 304 304 299 297 297 297 297 298 305 308 308 309 310 311 310 305 303 301 301 301 299 298 298 296 296 296 295 295 294
318 307 318 317 314 316 316 316 315 310 305 304 298 297 297 297 297 296 295 296 299 300 304 306 308 312 314 310 305 302 302 301 301 300 300 298 296 296 295 294 294 293 293
321 318 318 318 317 313 316 316 314 313 310 309 303 297 291 292 292 293 295 307 305 305 306 307 309 312 309 305 303 302 301 301 301 300 300 298 296 297 295 295 293 289 289
321 311 313 317 316 316 315 315 314 312 312 311 307 305 297 298 299 300 303 306 307 307 307 308 308 306 304 304 302 302 300 298 300 298 296 297 297 296 294 293 292 292 291
323 318 308 318 316 317 316 314 314 313 311 312 311 306 295 306 304 305 306 308 309 308 310 310 307 304 303 303 301 300 299 299 298 298 299 297 296 294 294 295 293 292 292
324 322 317 319 318 317 316 316 313 313 312 311 312 307 293 308 308 308 308 309 309 313 311 308 305 305 304 302 301 300 297 298 298 298 297 296 296 295 296 294 293 292 292
324 323 320 319 319 309 310 316 315 315 313 312 312 308 303 309 309 309 309 310 311 308 307 307 305 303 303 302 301 300 299 298 299 299 298 297 296 294 295 291 292 290 290
321 321 321 320 319 317 317 316 315 306 313 313 311 308 306 309 309 310 312 311 308 308 307 305 302 301 299 299 299 299 300 299 299 298 297 296 295 292 294 291 290 291 286
318 320 320 320 319 318 318 316 318 317 315 313 309 307 308 309 309 310 309 309 307 304 302 300 299 298 297 296 295 295 289 289 294 292 297 296 294 292 290 288 288 285 283
318 319 320 320 320 318 317 316 317 316 315 314 311 312 311 308 308 307 307 303 300 299 299 298 297 296 295 295 293 288 287 287 288 288 295 294 290 288 287 286 286 284 283
Wind_Speed
6 5 5 4 5 6 5 4 5 4 3 6 5 6 7 9 11 10 11 10 12 9 7 10 11 10 7 7 7 8 6 3 7 3 3 4 4 6 5 4 5 6 5
6 5 5 6 6 5 6 4 4 6 6 5 6 7 7 9 9 11 11 9 11 12 12 10 9 9 9 9 7 8 5 4 4 6 3 3 4 6 6 5 3 4 5
7 7 6 6 5 5 6 5 4 5 6 6 5 7 8 9 10 9 10 10 9 9 9 10 10 11 10 8 7 6 3 2 3 4 3 2 2 2 3 2 4 3 4
8 7 7 6 4 3 5 6 5 5 5 5 6 5 7 7 8 9 10 9 10 8 7 8 9 9 10 8 7 6 5 4 6 5 3 3 3 2 3 3 2 2 3
9 7 7 6 5 3 4 6 6 6 5 6 5 6 5 6 6 9 10 9 9 9 9 7 7 9 9 7 6 5 3 5 4 4 3 2 1 2 3 3 4 2 3
10 8 7 6 3 5 5 6 6 5 6 7 7 7 7 4 9 13 9 8 8 8 9 7 7 12 9 9 7 3 8 8 5 4 3 4 5 4 3 4 3 1 3
10 9 7 6 6 6 5 5 6 6 7 7 7 7 7 6 10 13 11 7 6 6 8 9 8 6 7 4 6 7 9 8 9 7 6 6 4 6 5 3 4 3 4
11 10 9 7 7 6 5 6 6 6 7 6 6 7 7 5 11 13 12 7 7 6 7 8 7 6 6 7 7 6 7 7 5 4 7 5 5 5 6 5 6 4 1
9 10 11 8 7 7 7 7 4 6 5 4 5 6 7 5 9 10 9 7 6 6 6 7 8 7 7 9 7 7 6 5 4 10 11 10 10 9 7 4 1 3 2
8 12 12 10 9 8 8 7 4 4 5 5 6 6 7 5 8 10 7 5 6 5 5 5 10 8 8 7 7 7 6 3 4 4 3 2 5 3 2 4 4 3 1
9 12 11 10 11 9 9 5 5 4 5 6 7 6 6 6 5 7 7 4 6 5 5 4 4 11 9 10 10 7 5 5 5 4 2 1 3 3 2 3 5 4 3
9 11 12 10 11 9 11 6 7 6 5 5 6 5 4 5 8 7 9 8 3 5 5 4 5 9 11 11 8 9 7 6 4 4 4 5 4 4 4 3 4 4 3
8 10 13 12 10 11 11 8 6 6 5 5 5 5 4 4 4 9 10 8 4 5 5 8 12 10 12 9 9 9 7 4 3 4 5 4 4 3 4 5 4 3 4
8 10 13 12 10 11 9 9 8 6 5 5 5 5 5 5 5 5 4 5 5 5 9 8 7 8 7 8 5 2 2 3 4 7 5 4 3 3 4 2 3 2 4
8 11 13 11 11 10 10 9 7 6 7 5 5 6 6 7 6 10 10 6 5 6 8 4 3 2 3 4 3 5 4 4 5 4 7 6 4 4 4 4 4 4 5
9 11 11 10 8 10 8 5 6 1 14 12 11 8 5 12 16 17 17 14 13 15 4 4 4 5 5 5 4 4 3 5 5 7 6 5 5 5 3 3 4 4 4
11 12 10 11 9 10 9 9 9 4 8 2 9 12 12 14 19 19 19 17 16 10 4 4 5 6 5 5 5 5 6 5 6 7 6 5 5 4 5 4 3 3 3
9 14 12 11 11 9 10 9 8 8 7 4 2 3 2 13 20 21 17 14 4 2 4 5 6 5 7 9 8 8 7 6 7 6 6 5 5 5 4 4 4 3 3
12 10 11 10 11 11 10 10 7 9 9 7 3 3 5 8 7 9 21 11 10 8 5 5 4 7 8 9 9 8 9 8 7 7 4 5 5 5 5 5 4 4 3
14 16 13 11 9 11 9 10 10 7 9 9 8 7 5 4 4 7 7 5 7 8 7 5 6 8 9 10 10 9 7 7 6 6 5 5 5 5 5 4 3 2 1
11 11 13 8 11 10 11 10 10 11 8 10 9 9 13 9 9 11 12 7 8 7 6 9 9 10 10 10 10 9 9 7 6 6 6 4 5 4 4 4 4 3 2
11 12 11 13 9 11 9 10 8 11 12 9 9 11 18 11 11 11 11 11 7 6 9 10 9 10 11 12 12 11 10 10 9 8 5 5 5 4 4 3 2 2 2
10 12 12 12 12 9 7 8 8 9 11 12 10 9 13 12 11 12 12 9 7 8 8 10 12 10 9 10 10 12 12 11 9 8 7 5 4 4 4 3 3 2 2
6 7 12 12 11 9 12 10 6 7 8 9 10 12 14 13 12 11 10 10 12 12 11 10 10 12 12 11 9 9 9 8 7 7 8 7 5 5 4 4 3 5 4
4 6 8 10 11 11 10 7 9 6 5 5 5 5 7 9 10 11 12 11 10 11 13 12 10 14 14 15 14 14 11 11 9 8 5 6 7 8 5 4 4 4 3
3 4 4 6 9 8 7 6 8 7 7 7 5 7 10 11 11 12 12 12 11 13 14 11 14 21 22 17 13 10 9 10 9 8 6 7 6 5 5 6 7 4 5
Wind_Direction
121 132 111 101 98 90 85 76 69 80 86 53 80 111 111 111 114 106 112 107 116 109 101 118 120 119 119 104 96 103 90 86 114 58 85 126 143 163 161 163 167 180 182
148 127 117 102 95 96 92 93 67 63 64 84 73 77 107 106 115 113 114 119 123 124 129 123 116 124 117 117 114 115 110 79 114 123 94 142 131 162 157 156 175 186 184
132 130 110 108 100 121 109 123 104 81 80 63 68 89 103 109 110 110 117 118 118 118 125 127 129 129 125 127 114 119 119 106 126 137 138 88 85 90 108 137 189 219 213
136 130 121 129 140 148 128 138 123 112 105 88 90 89 111 113 119 120 118 120 120 120 122 129 130 130 133 135 136 148 163 167 151 141 122 114 133 146 126 159 244 226 237
136 134 138 148 178 149 121 129 124 126 114 93 76 82 80 102 116 129 126 124 125 129 130 138 129 140 140 152 156 181 190 153 136 110 95 94 132 101 180 201 195 221 257
138 144 141 148 141 125 123 111 127 115 88 94 78 84 87 85 120 109 113 120 124 135 132 133 134 147 148 179 202 236 192 148 139 134 150 161 204 189 161 191 183 180 306
142 149 146 162 139 129 126 109 106 120 100 91 91 83 80 91 128 124 128 132 132 133 133 135 147 149 152 189 143 154 111 148 155 154 170 192 165 199 171 187 202 189 207
149 154 154 157 147 145 128 112 99 112 118 115 106 107 98 75 106 130 122 130 127 130 137 143 138 155 181 159 171 131 99 79 78 106 124 147 143 133 157 171 203 205 26
151 158 162 155 156 152 139 137 120 116 117 115 120 109 104 80 84 109 111 113 110 126 129 146 140 149 163 171 138 129 112 108 71 92 111 123 135 150 158 104 62 78 346
164 165 166 155 160 154 150 148 141 132 135 134 130 132 127 116 74 78 102 112 102 102 79 97 135 135 107 102 138 132 121 171 129 105 94 123 194 198 102 74 132 104 106
167 160 165 153 160 154 150 143 143 154 137 147 145 157 151 157 119 91 75 119 140 140 136 134 131 134 116 101 133 138 157 152 155 120 104 316 23 67 118 83 107 127 129
166 155 162 156 164 153 151 150 152 155 168 159 152 155 171 175 150 138 106 105 156 140 163 156 141 137 116 105 85 112 120 98 82 82 60 62 83 60 70 116 124 86 84
167 154 158 160 150 152 155 156 154 161 166 174 161 157 172 177 155 148 134 120 152 151 162 165 151 140 113 91 120 123 113 114 119 90 106 103 92 114 80 56 57 127 120
168 155 156 157 148 157 162 166 168 170 173 179 167 174 172 172 174 155 144 112 101 89 107 124 140 136 127 128 108 97 135 147 136 131 121 113 87 68 80 122 95 51 55
156 157 161 161 157 160 167 172 172 189 175 177 186 176 165 184 197 171 164 170 162 134 102 89 104 112 145 157 170 174 168 140 124 119 105 111 92 78 55 34 46 52 77
158 160 166 162 160 166 161 156 41 185 191 195 201 180 199 182 167 173 171 167 172 151 116 146 173 182 186 183 170 166 150 126 118 114 103 105 98 89 71 43 70 81 77
171 164 164 164 163 166 169 170 182 30 67 86 200 202 196 183 175 177 175 173 174 134 156 179 180 192 191 154 145 128 125 114 110 101 103 104 92 80 90 99 79 81 65
165 164 167 169 173 169 176 178 179 181 183 195 189 276 191 187 181 180 168 124 132 243 171 186 200 185 159 146 137 127 118 114 115 123 123 121 122 126 105 89 91 92 87
175 173 172 171 175 177 173 182 175 182 185 182 139 81 80 79 113 148 162 176 182 194 190 197 158 145 140 135 131 131 135 137 134 130 120 121 123 117 111 114 106 107 116
185 180 179 177 163 179 180 182 190 179 183 184 185 184 142 117 146 170 199 174 179 188 195 145 141 135 137 136 133 132 126 132 135 124 126 114 115 111 110 119 120 105 117
184 179 176 169 184 175 189 190 189 195 182 192 186 172 175 164 172 184 190 185 183 182 162 148 147 139 139 138 136 139 139 131 123 121 109 121 122 119 135 116 127 122 92
174 178 179 187 174 191 187 191 186 191 198 184 189 179 180 188 186 187 192 195 184 153 142 141 144 150 151 150 147 141 138 138 131 125 127 134 136 132 134 137 115 108 120
176 170 182 190 190 184 178 198 188 194 196 195 186 169 185 199 190 190 188 168 135 129 133 146 145 143 146 143 143 144 142 140 135 137 146 145 144 145 147 130 136 132 64
161 156 177 188 191 184 203 206 195 198 203 196 185 179 183 193 194 176 153 146 141 139 143 155 147 145 140 132 125 118 122 117 117 129 142 141 152 134 109 119 112 78 89
139 180 164 182 191 197 194 188 197 210 187 186 172 170 160 161 146 144 144 144 138 134 134 134 127 121 114 114 112 111 112 115 112 115 112 126 116 123 127 112 101 89 87
195 178 184 167 182 183 182 173 170 165 154 153 152 147 142 141 139 140 140 136 133 133 125 123 125 119 119 115 109 106 110 108 99 93 101 115 118 113 102 103 101 90 79